Deer Lodge (38S)
Deer Lodge, MT
Field Elevation: 4692
Lat: 49°23.27N  Long: 112°45.89W
CTAF/Unicom Freq: 120.0250
   
     For Weather-by-Phone, call 406-846-1177
Weather Advisories
11/24/2014 15:50 Z
Altimeter 30.23" Hg
Wind 290° @ 9 KT
Gusts --
Visibility 10 SM
Temperature 1° C (34° F)
Dewpoint -9° C (16° F)
Relative Humidity 50%
Density Altitude --
Condensation Altitude 9,400 feet
Wind Chill -3° C (27° F)
  Wind and Runways
Indicated Runway = 31
History
 
 
More Info
All DigiWx sites map
Weather Radar
NOAA Forecast
 
Airport IQ 5010
(S59) Libby
(6S5) Ravalli County
 
about DigiWx
 
FAA Disclaimer: The data displayed is for advisory purposes only and is not to be used for flight planning or operations. For official data, please call 406-846-1177 to hear the current automated AWOS voice message.
  METAR 38S 241550Z AUTO 29009KT 10SM 01/M09 A3023